Regional Weather Roundup
Issued by NWS

Home | Current Version | Previous Version | Text Only | Print | Product List | Glossary Off
Versions: 1 2 3 4 5 6 7 8 9 10 11 12 13 14 15 16 17 18 19 20 21 22 23 24 25 26 27 28 29 30 31 32 33 34 35 36 37 38 39 40 41 42 43 44 45 46 47 48 49 50

000
ASUS43 KLSX 311207
RWRMO

WEATHER SUMMARY FOR MISSOURI
NATIONAL WEATHER SERVICE SPRINGFIELD MO
700 AM CDT FRI OCT 31 2014

NOTE: "FAIR" INDICATES FEW OR NO CLOUDS BELOW 12,000 FEET WITH NO
       SIGNIFICANT WEATHER AND/OR OBSTRUCTIONS TO VISIBILITY.
       CURRENT SKY AND/OR WEATHER CONDITIONS ARE NOT AVAILABLE FOR
       CHILLICOTHE AND FARMINGTON.

MOZ001>031-035>038-043-044-053-054-311300-
...NORTHERN AND WESTERN MISSOURI...

CITY           SKY/WX    TMP DP  RH WIND       PRES   REMARKS
KANSAS CTY INT PTCLDY    35  25  66 N16G26    30.40R WCI  25
6HR MIN TEMP:  35; 6HR MAX TEMP:  50;

KANSAS C DTWN  MOCLDY    39  26  59 N15G30    30.40R
6HR MIN TEMP:  39; 6HR MAX TEMP:  52; 6HR PCP: TRACE;

LEE`S SUMMIT   CLOUDY    38  27  64 N24G35    30.38R WCI  27
6HR MIN TEMP:  38; 6HR MAX TEMP:  51;

ST JOSEPH      CLEAR     34  22  61 N17       30.45R WCI  23
6HR MIN TEMP:  33; 6HR MAX TEMP:  51;

CHILLICOTHE      N/A     36  24  62 N9G16     30.39R WCI  29
6HR MIN TEMP:  36; 6HR MAX TEMP:  51;

KIRKSVILLE     CLEAR     34  19  54 N26G33    30.35R WCI  21
6HR MIN TEMP:  34; 6HR MAX TEMP:  50; 6HR PCP: TRACE;


$$
MOZ066>068-077>081-088>096-101>105-311300-
...SOUTHWEST MISSOURI...

CITY           SKY/WX    TMP DP  RH WIND       PRES   REMARKS
SPRINGFIELD    CLOUDY    48  39  71 N17G28    30.23R
6HR MIN TEMP:  47; 6HR MAX TEMP:  51;

JOPLIN         CLOUDY    46  41  82 N12       30.30R
6HR MIN TEMP:  45; 6HR MAX TEMP:  51;


$$
MOZ032>034-039>042-045>050-055>058-069>072-311300-
...CENTRAL MISSOURI...

CITY           SKY/WX    TMP DP  RH WIND       PRES   REMARKS
COLUMBIA       CLOUDY    45  36  70 N22G29    30.26R
6HR MIN TEMP:  44; 6HR MAX TEMP:  49;

JEFFERSON CITY CLOUDY    49  38  65 NW16G23   30.25R
6HR MIN TEMP:  42; 6HR MAX TEMP:  50;

ROLLA          CLOUDY    45  40  82 N14       30.19R
6HR MIN TEMP:  43; 6HR MAX TEMP:  46;

SEDALIA        LGT RAIN  43  30  60 N28G33    30.32R
6HR MIN TEMP:  43; 6HR MAX TEMP:  51; 6HR PCP: TRACE;

WHITEMAN AFB   CLOUDY    42  31  66 N20G26    30.31R
OSAGE BEACH    CLOUDY    48  37  66 N12G24    30.24R

$$
MOZ051-052-059>065-311300-
...EAST CENTRAL MISSOURI...

CITY           SKY/WX    TMP DP  RH WIND       PRES   REMARKS
ST LOUIS INTL  MOCLDY    49  40  71 N12       30.16R
6HR MIN TEMP:  47; 6HR MAX TEMP:  49;

SPIRIT OF STL  CLOUDY    48  40  73 NW10      30.17R
6HR MIN TEMP:  45; 6HR MAX TEMP:  48;

ST CHARLES     CLOUDY    48  38  68 N26G36    30.17R
6HR MIN TEMP:  45; 6HR MAX TEMP:  48;


$$
MOZ072>076-082>087-097>100-106>115-311300-
...SOUTH CENTRAL AND SOUTHEAST MISSOURI...

CITY           SKY/WX    TMP DP  RH WIND       PRES   REMARKS
CAPE GIRARDEAU MOCLDY    50  46  86 N13       30.07R
6HR MIN TEMP:  48; 6HR MAX TEMP:  53;

FARMINGTON     CLOUDY    45  41  87 W13G18    30.15R
6HR MIN TEMP:  43; 6HR MAX TEMP:  46;

POPLAR BLUFF   CLEAR     48  43  82 N12       30.08R
6HR MIN TEMP:  46; 6HR MAX TEMP:  50;

WEST PLAINS    CLEAR     46  40  79 N16G26    30.17R
6HR MIN TEMP:  46; 6HR MAX TEMP:  51;


$$



USA.gov is the U.S. government's official web portal to all federal, state and local government web resources and services.